Year,Month,Day,Hour,Minute,Value (Times are PST for temperature in C)
2020,01,17,00,00,-3.10
2020,01,17,00,01,-3.10
2020,01,17,00,02,-3.10
2020,01,17,00,03,-3.20
2020,01,17,00,04,-3.20
2020,01,17,00,05,-3.20
2020,01,17,00,06,-3.20
2020,01,17,00,07,-3.30
2020,01,17,00,08,-3.30
2020,01,17,00,09,-3.30
2020,01,17,00,10,-3.30
2020,01,17,00,11,-3.30
2020,01,17,00,12,-3.30
2020,01,17,00,13,-3.30
2020,01,17,00,14,-3.30
2020,01,17,00,15,-3.30
2020,01,17,00,16,-3.30
2020,01,17,00,17,-3.30
2020,01,17,00,18,-3.40
2020,01,17,00,19,-3.40
2020,01,17,00,20,-3.30
2020,01,17,00,21,-3.30
2020,01,17,00,22,-3.30
2020,01,17,00,23,-3.30
2020,01,17,00,24,-3.30
2020,01,17,00,25,-3.30
2020,01,17,00,26,-3.30
2020,01,17,00,27,-3.20
2020,01,17,00,28,-3.20
2020,01,17,00,29,-3.20
2020,01,17,00,30,-3.20
2020,01,17,00,31,-3.20
2020,01,17,00,32,-3.20
2020,01,17,00,33,-3.20
2020,01,17,00,34,-3.20
2020,01,17,00,35,-3.20
2020,01,17,00,36,-3.20
2020,01,17,00,37,-3.20
2020,01,17,00,38,-3.20
2020,01,17,00,39,-3.20
2020,01,17,00,40,-3.20
2020,01,17,00,41,-3.20
2020,01,17,00,42,-3.20
2020,01,17,00,43,-3.20
2020,01,17,00,44,-3.20
2020,01,17,00,45,-3.20
2020,01,17,00,46,-3.20
2020,01,17,00,47,-3.30
2020,01,17,00,48,-3.30
2020,01,17,00,49,-3.30
2020,01,17,00,50,-3.30
2020,01,17,00,51,-3.30
2020,01,17,00,52,-3.30
2020,01,17,00,53,-3.30
2020,01,17,00,54,-3.30
2020,01,17,00,55,-3.30
2020,01,17,00,56,-3.30
2020,01,17,00,57,-3.20
2020,01,17,00,58,-3.20
2020,01,17,00,59,-3.20
2020,01,17,01,00,-3.10
2020,01,17,01,01,-3.10
2020,01,17,01,02,-3.10
2020,01,17,01,03,-3.10
2020,01,17,01,04,-3.10
2020,01,17,01,05,-3.10
2020,01,17,01,06,-3.10
2020,01,17,01,07,-3.10
2020,01,17,01,08,-3.10
2020,01,17,01,09,-3.20
2020,01,17,01,10,-3.10
2020,01,17,01,11,-3.20
2020,01,17,01,12,-3.10
2020,01,17,01,13,-3.20
2020,01,17,01,14,-3.20
2020,01,17,01,15,-3.20
2020,01,17,01,16,-3.20
2020,01,17,01,17,-3.20
2020,01,17,01,18,-3.30
2020,01,17,01,19,-3.30
2020,01,17,01,20,-3.30
2020,01,17,01,21,-3.30
2020,01,17,01,22,-3.30
2020,01,17,01,23,-3.40
2020,01,17,01,24,-3.40
2020,01,17,01,25,-3.40
2020,01,17,01,26,-3.40
2020,01,17,01,27,-3.40
2020,01,17,01,28,-3.50
2020,01,17,01,29,-3.50
2020,01,17,01,30,-3.50
2020,01,17,01,31,-3.60
2020,01,17,01,32,-3.60
2020,01,17,01,33,-3.60
2020,01,17,01,34,-3.60
2020,01,17,01,35,-3.60
2020,01,17,01,36,-3.60
2020,01,17,01,37,-3.70
2020,01,17,01,38,-3.70
2020,01,17,01,39,-3.70
2020,01,17,01,40,-3.70
2020,01,17,01,41,-3.80
2020,01,17,01,42,-3.80
2020,01,17,01,43,-3.80
2020,01,17,01,44,-3.80
2020,01,17,01,45,-3.90
2020,01,17,01,46,-3.90
2020,01,17,01,47,-3.90
2020,01,17,01,48,-3.90
2020,01,17,01,49,-4.00
2020,01,17,01,50,-4.00
2020,01,17,01,51,-4.10
2020,01,17,01,52,-4.10
2020,01,17,01,53,-4.10
2020,01,17,01,54,-4.10
2020,01,17,01,55,-4.10
2020,01,17,01,56,-4.20
2020,01,17,01,57,-4.20
2020,01,17,01,58,-4.20
2020,01,17,01,59,-4.20
2020,01,17,02,00,-4.20
2020,01,17,02,01,-4.20
2020,01,17,02,02,-4.20
2020,01,17,02,03,-4.20
2020,01,17,02,04,-4.20
2020,01,17,02,05,-4.20
2020,01,17,02,06,-4.20
2020,01,17,02,07,-4.20
2020,01,17,02,08,-4.20
2020,01,17,02,09,-4.20
2020,01,17,02,10,-4.20
2020,01,17,02,11,-4.20
2020,01,17,02,12,-4.20
2020,01,17,02,13,-4.20
2020,01,17,02,14,-4.20
2020,01,17,02,15,-4.10
2020,01,17,02,16,-4.10
2020,01,17,02,17,-4.10
2020,01,17,02,18,-4.10
2020,01,17,02,19,-4.10
2020,01,17,02,20,-4.10
2020,01,17,02,21,-4.10
2020,01,17,02,22,-4.10
2020,01,17,02,23,-4.10
2020,01,17,02,24,-4.20
2020,01,17,02,25,-4.20
2020,01,17,02,26,-4.20
2020,01,17,02,27,-4.20
2020,01,17,02,28,-4.20
2020,01,17,02,29,-4.30
2020,01,17,02,30,-4.30
2020,01,17,02,31,-4.30
2020,01,17,02,32,-4.30
2020,01,17,02,33,-4.40
2020,01,17,02,34,-4.40
2020,01,17,02,35,-4.40
2020,01,17,02,36,-4.40
2020,01,17,02,37,-4.40
2020,01,17,02,38,-4.40
2020,01,17,02,39,-4.40
2020,01,17,02,40,-4.40
2020,01,17,02,41,-4.50
2020,01,17,02,42,-4.50
2020,01,17,02,43,-4.50
2020,01,17,02,44,-4.50
2020,01,17,02,45,-4.50
2020,01,17,02,46,-4.50
2020,01,17,02,47,-4.50
2020,01,17,02,48,-4.50
2020,01,17,02,49,-4.60
2020,01,17,02,50,-4.60
2020,01,17,02,51,-4.60
2020,01,17,02,52,-4.60
2020,01,17,02,53,-4.60
2020,01,17,02,54,-4.70
2020,01,17,02,55,-4.70
2020,01,17,02,56,-4.70
2020,01,17,02,57,-4.70
2020,01,17,02,58,-4.70
2020,01,17,02,59,-4.70
2020,01,17,03,00,-4.70
2020,01,17,03,01,-4.70
2020,01,17,03,02,-4.70
2020,01,17,03,03,-4.70
2020,01,17,03,04,-4.70
2020,01,17,03,05,-4.60
2020,01,17,03,06,-4.60
2020,01,17,03,07,-4.60
2020,01,17,03,08,-4.60
2020,01,17,03,09,-4.60
2020,01,17,03,10,-4.60
2020,01,17,03,11,-4.60
2020,01,17,03,12,-4.50
2020,01,17,03,13,-4.40
2020,01,17,03,14,-4.40
2020,01,17,03,15,-4.40
2020,01,17,03,16,-4.40
2020,01,17,03,17,-4.40
2020,01,17,03,18,-4.40
2020,01,17,03,19,-4.40
2020,01,17,03,20,-4.40
2020,01,17,03,21,-4.40
2020,01,17,03,22,-4.50
2020,01,17,03,23,-4.60
2020,01,17,03,24,-4.60
2020,01,17,03,25,-4.70
2020,01,17,03,26,-4.70
2020,01,17,03,27,-4.70
2020,01,17,03,28,-4.70
2020,01,17,03,29,-4.80
2020,01,17,03,30,-4.80
2020,01,17,03,31,-4.80
2020,01,17,03,32,-4.90
2020,01,17,03,33,-4.90
2020,01,17,03,34,-4.90
2020,01,17,03,35,-4.90
2020,01,17,03,36,-4.90
2020,01,17,03,37,-4.90
2020,01,17,03,38,-4.90
2020,01,17,03,39,-4.90
2020,01,17,03,40,-4.90
2020,01,17,03,41,-5.00
2020,01,17,03,42,-5.00
2020,01,17,03,43,-5.10
2020,01,17,03,44,-5.10
2020,01,17,03,45,-5.10
2020,01,17,03,46,-5.10
2020,01,17,03,47,-5.10
2020,01,17,03,48,-5.10
2020,01,17,03,49,-5.00
2020,01,17,03,50,-5.00
2020,01,17,03,51,-4.90
2020,01,17,03,52,-4.90
2020,01,17,03,53,-5.00
2020,01,17,03,54,-5.00
2020,01,17,03,55,-5.00
2020,01,17,03,56,-5.00
2020,01,17,03,57,-5.00
2020,01,17,03,58,-5.00
2020,01,17,03,59,-5.10
2020,01,17,04,00,-5.10
2020,01,17,04,01,-5.10
2020,01,17,04,02,-5.20
2020,01,17,04,03,-5.20
2020,01,17,04,04,-5.20
2020,01,17,04,05,-5.20
2020,01,17,04,06,-5.20
2020,01,17,04,07,-5.30
2020,01,17,04,08,-5.30
2020,01,17,04,09,-5.30
2020,01,17,04,10,-5.30
2020,01,17,04,11,-5.30
2020,01,17,04,12,-5.30
2020,01,17,04,13,-5.30
2020,01,17,04,14,-5.30
2020,01,17,04,15,-5.30
2020,01,17,04,16,-5.30
2020,01,17,04,17,-5.30
2020,01,17,04,18,-5.20
2020,01,17,04,19,-5.20
2020,01,17,04,20,-5.20
2020,01,17,04,21,-5.20
2020,01,17,04,22,-5.20
2020,01,17,04,23,-5.10
2020,01,17,04,24,-5.10
2020,01,17,04,25,-5.10
2020,01,17,04,26,-5.10
2020,01,17,04,27,-5.10
2020,01,17,04,28,-5.20
2020,01,17,04,29,-5.30
2020,01,17,04,30,-5.30
2020,01,17,04,31,-5.40
2020,01,17,04,32,-5.40
2020,01,17,04,33,-5.50
2020,01,17,04,34,-5.50
2020,01,17,04,35,-5.50
2020,01,17,04,36,-5.60
2020,01,17,04,37,-5.60
2020,01,17,04,38,-5.60
2020,01,17,04,39,-5.60
2020,01,17,04,40,-5.60
2020,01,17,04,41,-5.60
2020,01,17,04,42,-5.60
2020,01,17,04,43,-5.60
2020,01,17,04,44,-5.60
2020,01,17,04,45,-5.60
2020,01,17,04,46,-5.60
2020,01,17,04,47,-5.60
2020,01,17,04,48,-5.70
2020,01,17,04,49,-5.70
2020,01,17,04,50,-5.80
2020,01,17,04,51,-5.80
2020,01,17,04,52,-5.80
2020,01,17,04,53,-5.90
2020,01,17,04,54,-5.90
2020,01,17,04,55,-5.90
2020,01,17,04,56,-5.90
2020,01,17,04,57,-6.00
2020,01,17,04,58,-6.00
2020,01,17,04,59,-6.10
2020,01,17,05,00,-6.10
2020,01,17,05,01,-6.20
2020,01,17,05,02,-6.20
2020,01,17,05,03,-6.20
2020,01,17,05,04,-6.30
2020,01,17,05,05,-6.30
2020,01,17,05,06,-6.30
2020,01,17,05,07,-6.30
2020,01,17,05,08,-6.30
2020,01,17,05,09,-6.30
2020,01,17,05,10,-6.30
2020,01,17,05,11,-6.40
2020,01,17,05,12,-6.40
2020,01,17,05,13,-6.40
2020,01,17,05,14,-6.40
2020,01,17,05,15,-6.40
2020,01,17,05,16,-6.40
2020,01,17,05,17,-6.40
2020,01,17,05,18,-6.40
2020,01,17,05,19,-6.40
2020,01,17,05,20,-6.40
2020,01,17,05,21,-6.50
2020,01,17,05,22,-6.50
2020,01,17,05,23,-6.60
2020,01,17,05,24,-6.60
2020,01,17,05,25,-6.70
2020,01,17,05,26,-6.70
2020,01,17,05,27,-6.70
2020,01,17,05,28,-6.70
2020,01,17,05,29,-6.70
2020,01,17,05,30,-6.70
2020,01,17,05,31,-6.70
2020,01,17,05,32,-6.70
2020,01,17,05,33,-6.70
2020,01,17,05,34,-6.70
2020,01,17,05,35,-6.70
2020,01,17,05,36,-6.70
2020,01,17,05,37,-6.70
2020,01,17,05,38,-6.80
2020,01,17,05,39,-6.80
2020,01,17,05,40,-6.90
2020,01,17,05,41,-6.90
2020,01,17,05,42,-6.90
2020,01,17,05,43,-6.90
2020,01,17,05,44,-6.90
2020,01,17,05,45,-6.90
2020,01,17,05,46,-6.90
2020,01,17,05,47,-6.80
2020,01,17,05,48,-6.80
2020,01,17,05,49,-6.80
2020,01,17,05,50,-6.80
2020,01,17,05,51,-6.80
2020,01,17,05,52,-6.80
2020,01,17,05,53,-6.70
2020,01,17,05,54,-6.70
2020,01,17,05,55,-6.70
2020,01,17,05,56,-6.70
2020,01,17,05,57,-6.60
2020,01,17,05,58,-6.60
2020,01,17,05,59,-6.50
2020,01,17,06,00,-6.50
2020,01,17,06,01,-6.50
2020,01,17,06,02,-6.50
2020,01,17,06,03,-6.40
2020,01,17,06,04,-6.40
2020,01,17,06,05,-6.40
2020,01,17,06,06,-6.30
2020,01,17,06,07,-6.30
2020,01,17,06,08,-6.30
2020,01,17,06,09,-6.30
2020,01,17,06,10,-6.30
2020,01,17,06,11,-6.30
2020,01,17,06,12,-6.30
2020,01,17,06,13,-6.30
2020,01,17,06,14,-6.30
2020,01,17,06,15,-6.30
2020,01,17,06,16,-6.30
2020,01,17,06,17,-6.30
2020,01,17,06,18,-6.30
2020,01,17,06,19,-6.30
2020,01,17,06,20,-6.30
2020,01,17,06,21,-6.30
2020,01,17,06,22,-6.30
2020,01,17,06,23,-6.30
2020,01,17,06,24,-6.30
2020,01,17,06,25,-6.30
2020,01,17,06,26,-6.40
2020,01,17,06,27,-6.40
2020,01,17,06,28,-6.40
2020,01,17,06,29,-6.40
2020,01,17,06,30,-6.40
2020,01,17,06,31,-6.30
2020,01,17,06,32,-6.30
2020,01,17,06,33,-6.30
2020,01,17,06,34,-6.30
2020,01,17,06,35,-6.30
2020,01,17,06,36,-6.30
2020,01,17,06,37,-6.30
2020,01,17,06,38,-6.30
2020,01,17,06,39,-6.30
2020,01,17,06,40,-6.30
2020,01,17,06,41,-6.40
2020,01,17,06,42,-6.40
2020,01,17,06,43,-6.40
2020,01,17,06,44,-6.40
2020,01,17,06,45,-6.40
2020,01,17,06,46,-6.30
2020,01,17,06,47,-6.30
2020,01,17,06,48,-6.30
2020,01,17,06,49,-6.30
2020,01,17,06,50,-6.30
2020,01,17,06,51,-6.30
2020,01,17,06,52,-6.30
2020,01,17,06,53,-6.30
2020,01,17,06,54,-6.30
2020,01,17,06,55,-6.30
2020,01,17,06,56,-6.30
2020,01,17,06,57,-6.30
2020,01,17,06,58,-6.30
2020,01,17,06,59,-6.30
2020,01,17,07,00,-6.30
2020,01,17,07,01,-6.30
2020,01,17,07,02,-6.30
2020,01,17,07,03,-6.30
2020,01,17,07,04,-6.30
2020,01,17,07,05,-6.30
2020,01,17,07,06,-6.20
2020,01,17,07,07,-6.20
2020,01,17,07,08,-6.20
2020,01,17,07,09,-6.20
2020,01,17,07,10,-6.20
2020,01,17,07,11,-6.20
2020,01,17,07,12,-6.30
2020,01,17,07,13,-6.30
2020,01,17,07,14,-6.30
2020,01,17,07,15,-6.30
2020,01,17,07,16,-6.30
2020,01,17,07,17,-6.30
2020,01,17,07,18,-6.30
2020,01,17,07,19,-6.30
2020,01,17,07,20,-6.30
2020,01,17,07,21,-6.30
2020,01,17,07,22,-6.30
2020,01,17,07,23,-6.30
2020,01,17,07,24,-6.30
2020,01,17,07,25,-6.30
2020,01,17,07,26,-6.30
2020,01,17,07,27,-6.30
2020,01,17,07,28,-6.30
2020,01,17,07,29,-6.30
2020,01,17,07,30,-6.30
2020,01,17,07,31,-6.20
2020,01,17,07,32,-6.20
2020,01,17,07,33,-6.20
2020,01,17,07,34,-6.20
2020,01,17,07,35,-6.20
2020,01,17,07,36,-6.20
2020,01,17,07,37,-6.20
2020,01,17,07,38,-6.20
2020,01,17,07,39,-6.20
2020,01,17,07,40,-6.20
2020,01,17,07,41,-6.20
2020,01,17,07,42,-6.20
2020,01,17,07,43,-6.20
2020,01,17,07,44,-6.20
2020,01,17,07,45,-6.20
2020,01,17,07,46,-6.20
2020,01,17,07,47,-6.20
2020,01,17,07,48,-6.20
2020,01,17,07,49,-6.20
2020,01,17,07,50,-6.10
2020,01,17,07,51,-6.10
2020,01,17,07,52,-6.00
2020,01,17,07,53,-6.00
2020,01,17,07,54,-6.00
2020,01,17,07,55,-5.90
2020,01,17,07,56,-6.00
2020,01,17,07,57,-6.00
2020,01,17,07,58,-6.00
2020,01,17,07,59,-6.00
2020,01,17,08,00,-6.00
2020,01,17,08,01,-6.10
2020,01,17,08,02,-6.00
2020,01,17,08,03,-6.10
2020,01,17,08,04,-6.10
2020,01,17,08,05,-6.10
2020,01,17,08,06,-6.10
2020,01,17,08,07,-6.10
2020,01,17,08,08,-6.10
2020,01,17,08,09,-6.10
2020,01,17,08,10,-6.10
2020,01,17,08,11,-6.10
2020,01,17,08,12,-6.10
2020,01,17,08,13,-6.10
2020,01,17,08,14,-6.10
2020,01,17,08,15,-6.10
2020,01,17,08,16,-6.10
2020,01,17,08,17,-6.10
2020,01,17,08,18,-6.10
2020,01,17,08,19,-6.20
2020,01,17,08,20,-6.20
2020,01,17,08,21,-6.20
2020,01,17,08,22,-6.20
2020,01,17,08,23,-6.20
2020,01,17,08,24,-6.20
2020,01,17,08,25,-6.20
2020,01,17,08,26,-6.20
2020,01,17,08,27,-6.20
2020,01,17,08,28,-6.20
2020,01,17,08,29,-6.20
2020,01,17,08,30,-6.20
2020,01,17,08,31,-6.20
2020,01,17,08,32,-6.10
2020,01,17,08,33,-6.10
2020,01,17,08,34,-6.10
2020,01,17,08,35,-6.10
2020,01,17,08,36,-6.10
2020,01,17,08,37,-6.10
2020,01,17,08,38,-6.10
2020,01,17,08,39,-6.10
2020,01,17,08,40,-6.10
2020,01,17,08,41,-6.10
2020,01,17,08,42,-6.10
2020,01,17,08,43,-6.10
2020,01,17,08,44,-6.10
2020,01,17,08,45,-6.10
2020,01,17,08,46,-6.10
2020,01,17,08,47,-6.10
2020,01,17,08,48,-6.10
2020,01,17,08,49,-6.10
2020,01,17,08,50,-6.10
2020,01,17,08,51,-6.10
2020,01,17,08,52,-6.10
2020,01,17,08,53,-6.10
2020,01,17,08,54,-6.10
2020,01,17,08,55,-6.10
2020,01,17,08,56,-6.10
2020,01,17,08,57,-6.10
2020,01,17,08,58,-6.10
2020,01,17,08,59,-6.10
2020,01,17,09,00,-6.10
2020,01,17,09,01,-6.10
2020,01,17,09,02,-6.10
2020,01,17,09,03,-6.10
2020,01,17,09,04,-6.10
2020,01,17,09,05,-6.10
2020,01,17,09,06,-6.10
2020,01,17,09,07,-6.10
2020,01,17,09,08,-6.10
2020,01,17,09,09,-6.00
2020,01,17,09,10,-6.00
2020,01,17,09,11,-6.00
2020,01,17,09,12,-5.90
2020,01,17,09,13,-5.90
2020,01,17,09,14,-5.90
2020,01,17,09,15,-5.90
2020,01,17,09,16,-5.90
2020,01,17,09,17,-5.90
2020,01,17,09,18,-5.90
2020,01,17,09,19,-5.90
2020,01,17,09,20,-5.90
2020,01,17,09,21,-5.90
2020,01,17,09,22,-5.90
2020,01,17,09,23,-5.90
2020,01,17,09,24,-5.90
2020,01,17,09,25,-5.90
2020,01,17,09,26,-5.90
2020,01,17,09,27,-5.80
2020,01,17,09,28,-5.80
2020,01,17,09,29,-5.80
2020,01,17,09,30,-5.80
2020,01,17,09,31,-5.80
2020,01,17,09,32,-5.70
2020,01,17,09,33,-5.70
2020,01,17,09,34,-5.60
2020,01,17,09,35,-5.60
2020,01,17,09,36,-5.60
2020,01,17,09,37,-5.50
2020,01,17,09,38,-5.50
2020,01,17,09,39,-5.40
2020,01,17,09,40,-5.40
2020,01,17,09,41,-5.30
2020,01,17,09,42,-5.30
2020,01,17,09,43,-5.30
2020,01,17,09,44,-5.20
2020,01,17,09,45,-5.10
2020,01,17,09,46,-5.10
2020,01,17,09,47,-5.00
2020,01,17,09,48,-5.00
2020,01,17,09,49,-4.90
2020,01,17,09,50,-4.90
2020,01,17,09,51,-4.90
2020,01,17,09,52,-4.80
2020,01,17,09,53,-4.80
2020,01,17,09,54,-4.80
2020,01,17,09,55,-4.80
2020,01,17,09,56,-4.80
2020,01,17,09,57,-4.80
2020,01,17,09,58,-4.80
2020,01,17,09,59,-4.80
2020,01,17,10,00,-4.80
2020,01,17,10,01,-4.80
2020,01,17,10,02,-4.80
2020,01,17,10,03,-4.80
2020,01,17,10,04,-4.70
2020,01,17,10,05,-4.70
2020,01,17,10,06,-4.70
2020,01,17,10,07,-4.70
2020,01,17,10,08,-4.60
2020,01,17,10,09,-4.60
2020,01,17,10,10,-4.60
2020,01,17,10,11,-4.50
2020,01,17,10,12,-4.50
2020,01,17,10,13,-4.50
2020,01,17,10,14,-4.50
2020,01,17,10,15,-4.40
2020,01,17,10,16,-4.40
2020,01,17,10,17,-4.40
2020,01,17,10,18,-4.30
2020,01,17,10,19,-4.30
2020,01,17,10,20,-4.30
2020,01,17,10,21,-4.30
2020,01,17,10,22,-4.20
2020,01,17,10,23,-4.20
2020,01,17,10,24,-4.10
2020,01,17,10,25,-4.10
2020,01,17,10,26,-4.00
2020,01,17,10,27,-4.00
2020,01,17,10,28,-4.00
2020,01,17,10,29,-3.90
2020,01,17,10,30,-3.90
2020,01,17,10,31,-3.80
2020,01,17,10,32,-3.80
2020,01,17,10,33,-3.80
2020,01,17,10,34,-3.70
2020,01,17,10,35,-3.70
2020,01,17,10,36,-3.60
2020,01,17,10,37,-3.60
2020,01,17,10,38,-3.60
2020,01,17,10,39,-3.50
2020,01,17,10,40,-3.40
2020,01,17,10,41,-3.40
2020,01,17,10,42,-3.40
2020,01,17,10,43,-3.30
2020,01,17,10,44,-3.30
2020,01,17,10,45,-3.30
2020,01,17,10,46,-3.20
2020,01,17,10,47,-3.20
2020,01,17,10,48,-3.20
2020,01,17,10,49,-3.20
2020,01,17,10,50,-3.20
2020,01,17,10,51,-3.10
2020,01,17,10,52,-3.10
2020,01,17,10,53,-3.10
2020,01,17,10,54,-3.00
2020,01,17,10,55,-3.00
2020,01,17,10,56,-2.90
2020,01,17,10,57,-2.90
2020,01,17,10,58,-2.80
2020,01,17,10,59,-2.80
2020,01,17,11,00,-2.70
2020,01,17,11,01,-2.70
2020,01,17,11,02,-2.60
2020,01,17,11,03,-2.50
2020,01,17,11,04,-2.40
2020,01,17,11,05,-2.30
2020,01,17,11,06,-2.20
2020,01,17,11,07,-2.10
2020,01,17,11,08,-2.10
2020,01,17,11,09,-2.10
2020,01,17,11,10,-2.00
2020,01,17,11,11,-2.00
2020,01,17,11,12,-2.00
2020,01,17,11,13,-2.00
2020,01,17,11,14,-1.90
2020,01,17,11,15,-1.90
2020,01,17,11,16,-1.90
2020,01,17,11,17,-1.90
2020,01,17,11,18,-1.90
2020,01,17,11,19,-1.80
2020,01,17,11,20,-1.80
2020,01,17,11,21,-1.80
2020,01,17,11,22,-1.80
2020,01,17,11,23,-1.80
2020,01,17,11,24,-1.80
2020,01,17,11,25,-1.80
2020,01,17,11,26,-1.70
2020,01,17,11,27,-1.70
2020,01,17,11,28,-1.70
2020,01,17,11,29,-1.70
2020,01,17,11,30,-1.70
2020,01,17,11,31,-1.70
2020,01,17,11,32,-1.70
2020,01,17,11,33,-1.70
2020,01,17,11,34,-1.70
2020,01,17,11,35,-1.70
2020,01,17,11,36,-1.70
2020,01,17,11,37,-1.70
2020,01,17,11,38,-1.70
2020,01,17,11,39,-1.70
2020,01,17,11,40,-1.70
2020,01,17,11,41,-1.70
2020,01,17,11,42,-1.60
2020,01,17,11,43,-1.60
2020,01,17,11,44,-1.60
2020,01,17,11,45,-1.60
2020,01,17,11,46,-1.60
2020,01,17,11,47,-1.60
2020,01,17,11,48,-1.50
2020,01,17,11,49,-1.50
2020,01,17,11,50,-1.50
2020,01,17,11,51,-1.40
2020,01,17,11,52,-1.40
2020,01,17,11,53,-1.40
2020,01,17,11,54,-1.40
2020,01,17,11,55,-1.30
2020,01,17,11,56,-1.30
2020,01,17,11,57,-1.30
2020,01,17,11,58,-1.20
2020,01,17,11,59,-1.20
2020,01,17,12,00,-1.20
2020,01,17,12,01,-1.20
2020,01,17,12,02,-1.10
2020,01,17,12,03,-1.10
2020,01,17,12,04,-1.10
2020,01,17,12,05,-1.10
2020,01,17,12,06,-1.00
2020,01,17,12,07,-1.00
2020,01,17,12,08,-1.00
2020,01,17,12,09,-1.00
2020,01,17,12,10,-1.00
2020,01,17,12,11,-0.90
2020,01,17,12,12,-0.90
2020,01,17,12,13,-0.90
2020,01,17,12,14,-0.90
2020,01,17,12,15,-0.90
2020,01,17,12,16,-0.90
2020,01,17,12,17,-0.80
2020,01,17,12,18,-0.80
2020,01,17,12,19,-0.80
2020,01,17,12,20,-0.80
2020,01,17,12,21,-0.70
2020,01,17,12,22,-0.70
2020,01,17,12,23,-0.70
2020,01,17,12,24,-0.70
2020,01,17,12,25,-0.70
2020,01,17,12,26,-0.60
2020,01,17,12,27,-0.60
2020,01,17,12,28,-0.60
2020,01,17,12,29,-0.60
2020,01,17,12,30,-0.60
2020,01,17,12,31,-0.60
2020,01,17,12,32,-0.50
2020,01,17,12,33,-0.50
2020,01,17,12,34,-0.50
2020,01,17,12,35,-0.40
2020,01,17,12,36,-0.40
2020,01,17,12,37,-0.40
2020,01,17,12,38,-0.40
2020,01,17,12,39,-0.40
2020,01,17,12,40,-0.40
2020,01,17,12,41,-0.40
2020,01,17,12,42,-0.30
2020,01,17,12,43,-0.30
2020,01,17,12,44,-0.30
2020,01,17,12,45,-0.30
2020,01,17,12,46,-0.30
2020,01,17,12,47,-0.20
2020,01,17,12,48,-0.20
2020,01,17,12,49,-0.20
2020,01,17,12,50,-0.20
2020,01,17,12,51,-0.10
2020,01,17,12,52,-0.10
2020,01,17,12,53,-0.10
2020,01,17,12,54,-0.10
2020,01,17,12,55,0.00
2020,01,17,12,56,0.00
2020,01,17,12,57,0.00
2020,01,17,12,58,0.00
2020,01,17,12,59,0.00
2020,01,17,13,00,0.10
2020,01,17,13,01,0.10
2020,01,17,13,02,0.10
2020,01,17,13,03,0.10
2020,01,17,13,04,0.20
2020,01,17,13,05,0.20
2020,01,17,13,06,0.20
2020,01,17,13,07,0.20
2020,01,17,13,08,0.10
2020,01,17,13,09,0.10
2020,01,17,13,10,0.10
2020,01,17,13,11,0.10
2020,01,17,13,12,0.10
2020,01,17,13,13,0.10
2020,01,17,13,14,0.10
2020,01,17,13,15,0.10
2020,01,17,13,16,0.10
2020,01,17,13,17,0.10
2020,01,17,13,18,0.10
2020,01,17,13,19,0.10
2020,01,17,13,20,0.10
2020,01,17,13,21,0.10
2020,01,17,13,22,0.10
2020,01,17,13,23,0.10
2020,01,17,13,24,0.10
2020,01,17,13,25,0.10
2020,01,17,13,26,0.10
2020,01,17,13,27,0.10
2020,01,17,13,28,0.10
2020,01,17,13,29,0.10
2020,01,17,13,30,0.10
2020,01,17,13,31,0.20
2020,01,17,13,32,0.20
2020,01,17,13,33,0.20
2020,01,17,13,34,0.20
2020,01,17,13,35,0.20
2020,01,17,13,36,0.20
2020,01,17,13,37,0.20
2020,01,17,13,38,0.20
2020,01,17,13,39,0.20
2020,01,17,13,40,0.20
2020,01,17,13,41,0.20
2020,01,17,13,42,0.30
2020,01,17,13,43,0.30
2020,01,17,13,44,0.30
2020,01,17,13,45,0.30
2020,01,17,13,46,0.30
2020,01,17,13,47,0.30
2020,01,17,13,48,0.30
2020,01,17,13,49,0.30
2020,01,17,13,50,0.30
2020,01,17,13,51,0.30
2020,01,17,13,52,0.30
2020,01,17,13,53,0.30
2020,01,17,13,54,0.40
2020,01,17,13,55,0.40
2020,01,17,13,56,0.40
2020,01,17,13,57,0.40
2020,01,17,13,58,0.40
2020,01,17,13,59,0.40
2020,01,17,14,00,0.40
2020,01,17,14,01,0.40
2020,01,17,14,02,0.40
2020,01,17,14,03,0.40
2020,01,17,14,04,0.40
2020,01,17,14,05,0.50
2020,01,17,14,06,0.50
2020,01,17,14,07,0.50
2020,01,17,14,08,0.50
2020,01,17,14,09,0.50
2020,01,17,14,10,0.50
2020,01,17,14,11,0.50
2020,01,17,14,12,0.50
2020,01,17,14,13,0.60
2020,01,17,14,14,0.60
2020,01,17,14,15,0.60
2020,01,17,14,16,0.60
2020,01,17,14,17,0.60
2020,01,17,14,18,0.60
2020,01,17,14,19,0.60
2020,01,17,14,20,0.60
2020,01,17,14,21,0.60
2020,01,17,14,22,0.60
2020,01,17,14,23,0.60
2020,01,17,14,24,0.60
2020,01,17,14,25,0.60
2020,01,17,14,26,0.60
2020,01,17,14,27,0.60
2020,01,17,14,28,0.60
2020,01,17,14,29,0.60
2020,01,17,14,30,0.60
2020,01,17,14,31,0.50
2020,01,17,14,32,0.50
2020,01,17,14,33,0.50
2020,01,17,14,34,0.50
2020,01,17,14,35,0.50
2020,01,17,14,36,0.50
2020,01,17,14,37,0.50
2020,01,17,14,38,0.50
2020,01,17,14,39,0.50
2020,01,17,14,40,0.50
2020,01,17,14,41,0.50
2020,01,17,14,42,0.50
2020,01,17,14,43,0.60
2020,01,17,14,44,0.60
2020,01,17,14,45,0.60
2020,01,17,14,46,0.60
2020,01,17,14,47,0.60
2020,01,17,14,48,0.60
2020,01,17,14,49,0.60
2020,01,17,14,50,0.60
2020,01,17,14,51,0.60
2020,01,17,14,52,0.60
2020,01,17,14,53,0.60
2020,01,17,14,54,0.70
2020,01,17,14,55,0.70
2020,01,17,14,56,0.70
2020,01,17,14,57,0.70
2020,01,17,14,58,0.70
2020,01,17,14,59,0.70
2020,01,17,15,00,0.70
2020,01,17,15,01,0.80
2020,01,17,15,02,0.80
2020,01,17,15,03,0.80
2020,01,17,15,04,0.80
2020,01,17,15,05,0.80
2020,01,17,15,06,0.80
2020,01,17,15,07,0.80
2020,01,17,15,08,0.90
2020,01,17,15,09,0.90
2020,01,17,15,10,0.90
2020,01,17,15,11,0.90
2020,01,17,15,12,0.90
2020,01,17,15,13,0.90
2020,01,17,15,14,0.90
2020,01,17,15,15,0.90
2020,01,17,15,16,0.90
2020,01,17,15,17,0.90
2020,01,17,15,18,1.00
2020,01,17,15,19,0.90
2020,01,17,15,20,0.90
2020,01,17,15,21,0.90
2020,01,17,15,22,0.90
2020,01,17,15,23,0.90
2020,01,17,15,24,0.90
2020,01,17,15,25,0.90
2020,01,17,15,26,0.90
2020,01,17,15,27,0.90
2020,01,17,15,28,0.90
2020,01,17,15,29,0.90
2020,01,17,15,30,0.90
2020,01,17,15,31,0.90
2020,01,17,15,32,0.90
2020,01,17,15,33,0.90
2020,01,17,15,34,0.90
2020,01,17,15,35,0.90
2020,01,17,15,36,0.90
2020,01,17,15,37,0.90
2020,01,17,15,38,0.90
2020,01,17,15,39,0.90
2020,01,17,15,40,0.90
2020,01,17,15,41,0.90
2020,01,17,15,42,0.90
2020,01,17,15,43,0.90
2020,01,17,15,44,0.90
2020,01,17,15,45,0.90
2020,01,17,15,46,0.90
2020,01,17,15,47,0.90
2020,01,17,15,48,0.90
2020,01,17,15,49,0.90
2020,01,17,15,50,1.00
2020,01,17,15,51,0.90
2020,01,17,15,52,1.00
2020,01,17,15,53,1.00
2020,01,17,15,54,1.00
2020,01,17,15,55,1.00
2020,01,17,15,56,1.00
2020,01,17,15,57,1.00
2020,01,17,15,58,1.10
2020,01,17,15,59,1.10
2020,01,17,16,00,1.10
2020,01,17,16,01,1.10
2020,01,17,16,02,1.10
2020,01,17,16,03,1.10
2020,01,17,16,04,1.10
2020,01,17,16,05,1.10
2020,01,17,16,06,1.10
2020,01,17,16,07,1.10
2020,01,17,16,08,1.10
2020,01,17,16,09,1.10
2020,01,17,16,10,1.10
2020,01,17,16,11,1.10
2020,01,17,16,12,1.10
2020,01,17,16,13,1.10
2020,01,17,16,14,1.10
2020,01,17,16,15,1.10
2020,01,17,16,16,1.10
2020,01,17,16,17,1.10
2020,01,17,16,18,1.10
2020,01,17,16,19,1.10
2020,01,17,16,20,1.10
2020,01,17,16,21,1.10
2020,01,17,16,22,1.10
2020,01,17,16,23,1.10
2020,01,17,16,24,1.10
2020,01,17,16,25,1.10
2020,01,17,16,26,1.10
2020,01,17,16,27,1.10
2020,01,17,16,28,1.10
2020,01,17,16,29,1.10
2020,01,17,16,30,1.10
2020,01,17,16,31,1.10
2020,01,17,16,32,1.10
2020,01,17,16,33,1.10
2020,01,17,16,34,1.00
2020,01,17,16,35,1.00
2020,01,17,16,36,1.00
2020,01,17,16,37,1.00
2020,01,17,16,38,1.00
2020,01,17,16,39,0.90
2020,01,17,16,40,0.90
2020,01,17,16,41,0.90
2020,01,17,16,42,0.90
2020,01,17,16,43,0.90
2020,01,17,16,44,0.90
2020,01,17,16,45,0.90
2020,01,17,16,46,0.90
2020,01,17,16,47,0.90
2020,01,17,16,48,0.90
2020,01,17,16,49,0.90
2020,01,17,16,50,0.90
2020,01,17,16,51,0.90
2020,01,17,16,52,1.00
2020,01,17,16,53,0.90
2020,01,17,16,54,0.90
2020,01,17,16,55,1.00
2020,01,17,16,56,1.00
2020,01,17,16,57,1.00
2020,01,17,16,58,1.00
2020,01,17,16,59,1.10
2020,01,17,17,00,1.10
2020,01,17,17,01,1.10
2020,01,17,17,02,1.10
2020,01,17,17,03,1.20
2020,01,17,17,04,1.20
2020,01,17,17,05,1.20
2020,01,17,17,06,1.20
2020,01,17,17,07,1.20
2020,01,17,17,08,1.20
2020,01,17,17,09,1.20
2020,01,17,17,10,1.20
2020,01,17,17,11,1.20
2020,01,17,17,12,1.20
2020,01,17,17,13,1.20
2020,01,17,17,14,1.20
2020,01,17,17,15,1.20
2020,01,17,17,16,1.20
2020,01,17,17,17,1.10
2020,01,17,17,18,1.10
2020,01,17,17,19,1.10
2020,01,17,17,20,1.10
2020,01,17,17,21,1.10
2020,01,17,17,22,1.10
2020,01,17,17,23,1.10
2020,01,17,17,24,1.00
2020,01,17,17,25,1.00
2020,01,17,17,26,1.00
2020,01,17,17,27,1.00
2020,01,17,17,28,1.00
2020,01,17,17,29,1.00
2020,01,17,17,30,1.00
2020,01,17,17,31,1.10